This demonstration page uses our WeatherBlox Daily Observations layout. Learn more.

Left ArrowRight Arrow

39.01783, -85.05884

Hourly Observations for September 13, 2018

Temp ( °F °C ) Dew Point ( °F °C ) Humidity (%) Winds ( mph kmh ) Pressure ( in mb ) Visibility ( mi km ) Precip ( " mm )
12:52 am 00:52 Cloudy 67 19.4 62 16.7 84 84 N 3 6 30.14 1021 10 16 N/A
1:52 am 01:52 Cloudy 67 19.4 62 16.7 84 84 N 3 6 30.13 1020 10 16 N/A
2:52 am 02:52 Mostly Cloudy 65 18.3 62 16.7 90 90 NNE 3 6 30.14 1021 10 16 N/A
3:52 am 03:52 Mostly Cloudy 65 18.3 63 17.2 93 93 N 3 6 30.12 1020 10 16 N/A
4:52 am 04:52 Partly Cloudy 64 17.8 63 17.2 96 96 N 3 6 30.12 1020 9 14 N/A
5:52 am 05:52 Partly Cloudy 65 18.3 63 17.2 93 93 N 6 9 30.12 1020 9 14 N/A
6:08 am 06:08 Mostly Cloudy 64 17.8 63 17.2 96 96 N 6 9 30.15 1021 8 13 N/A
6:52 am 06:52 Mostly Cloudy 64 17.8 63 17.2 96 96 NNE 3 6 30.13 1020 9 14 N/A
7:23 am 07:23 Cloudy 65 18.3 63 17.2 93 93 VRB 5 7 30.15 1021 8 13 N/A
7:52 am 07:52 Cloudy with Patchy Fog 66 18.9 63 17.2 90 90 NNE 5 7 30.14 1021 7 11 N/A
8:52 am 08:52 Mostly Cloudy 67 19.4 64 17.8 91 91 NE 5 7 30.16 1022 7 11 N/A
9:09 am 09:09 Mostly Cloudy 67 19.4 64 17.8 91 91 E 5 7 30.18 1022 8 13 N/A
9:52 am 09:52 Mostly Sunny 72 22.2 66 18.9 82 82 NE 3 6 30.16 1021 10 16 N/A
10:52 am 10:52 Mostly Sunny 76 24.4 67 19.4 74 74 NE 7 11 30.17 1022 10 16 N/A
11:52 am 11:52 Partly Cloudy 79 26.1 68 20 69 69 NNE 6 9 30.16 1021 10 16 N/A
12:52 pm 12:52 Partly Cloudy 79 26.1 67 19.4 67 67 N N/A 30.14 1021 10 16 N/A
1:52 pm 13:52 Partly Cloudy 82 27.8 67 19.4 60 60 VRB 3 6 30.13 1020 10 16 N/A
2:52 pm 14:52 Mostly Sunny 84 28.9 66 18.9 55 55 N N/A 30.10 1019 10 16 N/A
3:52 pm 15:52 Mostly Sunny 85 29.4 66 18.9 53 53 VRB 3 6 30.09 1019 10 16 N/A
4:52 pm 16:52 Mostly Sunny 85 29.4 66 18.9 53 53 N 6 9 30.07 1018 10 16 N/A
5:52 pm 17:52 Mostly Sunny 84 28.9 66 18.9 55 55 N 5 7 30.08 1019 10 16 N/A
6:52 pm 18:52 Sunny 83 28.3 64 17.8 53 53 NNW 6 9 30.06 1018 10 16 N/A
7:52 pm 19:52 Mostly Clear 80 26.7 64 17.8 58 58 NNW 5 7 30.07 1018 10 16 N/A
8:52 pm 20:52 Clear 73 22.8 66 18.9 79 79 N N/A 30.09 1019 10 16 N/A
9:52 pm 21:52 Clear 70 21.1 66 18.9 87 87 N N/A 30.09 1019 10 16 N/A
10:52 pm 22:52 Clear 72 22.2 66 18.9 82 82 N N/A 30.09 1019 10 16 N/A
11:52 pm 23:52 Clear 72 22.2 65 18.3 79 79 N N/A 30.08 1019 10 16 N/A

Powered by AerisWeather